Weather History for Greenwood, SC

Change the Weather History Date:

Monday, January 13, 2014

  Actual Average (KAND) Record (KAND)
Temperature  
Mean Temperature 47 °F -  
Max Temperature 60 °F 49 °F 73 °F (1960)
Min Temperature 34 °F 31 °F 15 °F (1962)
Degree Days  
Heating Degree Days 18    
Moisture  
Dew Point 36 °F    
Average Humidity 69    
Maximum Humidity 93    
Minimum Humidity 39    
Precipitation  
Precipitation 0.12 in - - ()
Sea Level Pressure  
Sea Level Pressure 30.09 in    
Wind  
Wind Speed 3 mph (SSW)    
Max Wind Speed 12 mph    
Max Gust Speed -    
Visibility 10 miles    
Events Rain    
Averages and records for this station are not official NWS values.
T = Trace of Precipitation, MM = Missing Value Source: NWS Daily Summary

Daily Weather History Graph

Daily Weather History Graph

Search for Another Location

Airport:

Trip Planner

Search our weather history database for the weather conditions in past years. The results will help you decide how hot, cold, wet, or windy it might be!

Date:

Astronomy

Jan. 13, 2014 Rise Set
Actual Time 7:34 AM EST 5:40 PM EST
Civil Twilight 7:07 AM EST 6:07 PM EST
Nautical Twilight 6:36 AM EST 6:38 PM EST
Astronomical Twilight 6:06 AM EST 7:08 PM EST
Moon 3:53 PM EST (1/13) 5:23 AM EST (1/13)
Length of Visible Light 10h 59m
Length of Day
10h 05m
Waxing Gibbous, 95% of the Moon is Illuminated
Jan 13
Waxing Gibbous
Jan 15
Full
Jan 24
Last Quarter
Jan 30
New
Feb 6
First Quarter

Hourly Weather History & Observations

Time (EST) Temp. Windchill Dew Point Humidity Pressure Visibility Wind Dir Wind Speed Gust Speed Precip Events Conditions
12:56 AM 37.0 °F - 32.0 °F 82% 30.18 in 10.0 mi Calm Calm - N/A   Clear
1:56 AM 35.1 °F - 30.9 °F 85% 30.18 in 10.0 mi Calm Calm - N/A   Clear
2:56 AM 36.0 °F - 33.1 °F 89% 30.18 in 10.0 mi Calm Calm - N/A   Clear
3:56 AM 39.9 °F 36.7 °F 33.1 °F 77% 30.18 in 10.0 mi SSW 4.6 mph - N/A   Clear
4:56 AM 39.0 °F 36.8 °F 33.1 °F 79% 30.19 in 10.0 mi SSW 3.5 mph - N/A   Clear
5:56 AM 37.0 °F 33.3 °F 32.0 °F 82% 30.18 in 10.0 mi SW 4.6 mph - N/A   Clear
6:56 AM 35.1 °F 32.2 °F 30.9 °F 85% 30.17 in 10.0 mi SSW 3.5 mph - N/A   Clear
7:56 AM 34.0 °F 31.0 °F 30.9 °F 89% 30.16 in 10.0 mi South 3.5 mph - N/A   Clear
8:56 AM 42.1 °F 40.2 °F 36.0 °F 79% 30.16 in 10.0 mi South 3.5 mph - N/A   Clear
9:56 AM 48.9 °F - 36.0 °F 61% 30.17 in 10.0 mi SW 6.9 mph - N/A   Clear
10:56 AM 54.0 °F - 35.1 °F 49% 30.18 in 10.0 mi SW 11.5 mph - N/A   Clear
11:56 AM 55.9 °F - 34.0 °F 44% 30.13 in 10.0 mi SW 9.2 mph - N/A   Clear
12:56 PM 57.9 °F - 34.0 °F 41% 30.08 in 10.0 mi SW 9.2 mph - N/A   Clear
1:56 PM 60.1 °F - 35.1 °F 39% 30.05 in 10.0 mi SSW 5.8 mph - N/A   Clear
2:56 PM 60.1 °F - 35.1 °F 39% 30.04 in 10.0 mi South 9.2 mph - N/A   Clear
3:56 PM 59.0 °F - 35.1 °F 41% 30.04 in 10.0 mi South 9.2 mph - N/A   Clear
4:56 PM 57.0 °F - 35.1 °F 44% 30.03 in 10.0 mi South 4.6 mph - N/A   Clear
5:56 PM 52.0 °F - 37.0 °F 57% 30.00 in 10.0 mi Calm Calm - N/A   Clear
6:56 PM 52.0 °F - 37.0 °F 57% 30.01 in 10.0 mi Calm Calm - N/A   Overcast
7:56 PM 52.0 °F - 39.9 °F 63% 30.03 in 10.0 mi SSW 5.8 mph - 0.00 in Rain Light Rain
8:56 PM 48.9 °F - 45.0 °F 86% 30.02 in 10.0 mi Calm Calm - 0.02 in Rain Light Rain
9:56 PM 46.9 °F - 45.0 °F 93% 30.00 in 4.0 mi Calm Calm - 0.06 in Rain Rain
10:56 PM 46.9 °F - 45.0 °F 93% 29.98 in 10.0 mi Calm Calm - 0.04 in   Overcast
11:56 PM 46.9 °F - 45.0 °F 93% 29.93 in 10.0 mi NE 3.5 mph - N/A   Overcast